Time,TemperatureF,DewpointF,PressureIn,WindDirection,WindDirectionDegrees,WindSpeedMPH,WindSpeedGustMPH,Humidity,HourlyPrecipIn,Conditions,Clouds,dailyrainin,SoftwareType,DateUTC
2013-04-29 00:02:00,34.0,11.0,-100.00,SW,235,1.0,2.0,37,0.00,,,-99.99,,2013-04-29 06:02:00,
2013-04-29 00:11:00,36.0,11.0,-100.00,NE,50,1.0,3.0,36,0.00,,,-99.99,,2013-04-29 06:11:00,
2013-04-29 00:21:00,38.0,12.0,-100.00,North,0,2.0,4.0,34,0.00,,,-99.99,,2013-04-29 06:21:00,
2013-04-29 00:32:00,37.0,11.0,-100.00,North,0,2.0,5.0,33,0.00,,,-99.99,,2013-04-29 06:32:00,
2013-04-29 00:42:00,37.0,11.0,-100.00,NNE,30,2.0,4.0,33,0.00,,,-99.99,,2013-04-29 06:42:00,
2013-04-29 00:52:00,37.0,11.0,-100.00,NE,35,3.0,6.0,34,0.00,,,-99.99,,2013-04-29 06:52:00,
2013-04-29 01:01:00,36.0,11.0,-100.00,North,0,2.0,5.0,34,0.00,,,-99.99,,2013-04-29 07:01:00,
2013-04-29 01:11:00,36.0,11.0,-100.00,NNE,15,3.0,6.0,34,0.00,,,-99.99,,2013-04-29 07:11:00,
2013-04-29 01:21:00,36.0,11.0,-100.00,North,5,4.0,7.0,34,0.00,,,-99.99,,2013-04-29 07:21:00,
2013-04-29 01:32:00,37.0,11.0,-100.00,NNE,25,3.0,6.0,34,0.00,,,-99.99,,2013-04-29 07:32:00,
2013-04-29 01:42:00,36.0,11.0,-100.00,NNE,30,3.0,6.0,34,0.00,,,-99.99,,2013-04-29 07:42:00,
2013-04-29 01:52:00,36.0,11.0,-100.00,NNE,30,4.0,7.0,34,0.00,,,-99.99,,2013-04-29 07:52:00,
2013-04-29 02:03:00,36.0,11.0,-100.00,NNE,30,4.0,6.0,35,0.00,,,-99.99,,2013-04-29 08:03:00,
2013-04-29 02:11:00,36.0,11.0,-100.00,North,5,2.0,6.0,35,0.00,,,-99.99,,2013-04-29 08:11:00,
2013-04-29 02:21:00,36.0,11.0,-100.00,North,5,1.0,5.0,35,0.00,,,-99.99,,2013-04-29 08:21:00,
2013-04-29 02:32:00,32.0,10.0,-100.00,South,170,2.0,3.0,38,0.00,,,-99.99,,2013-04-29 08:32:00,
2013-04-29 02:42:00,33.0,11.0,-100.00,ESE,120,1.0,3.0,39,0.00,,,-99.99,,2013-04-29 08:42:00,
2013-04-29 02:51:00,32.0,11.0,-100.00,SE,135,1.0,3.0,40,0.00,,,-99.99,,2013-04-29 08:51:00,
2013-04-29 03:01:00,32.0,11.0,-100.00,South,180,2.0,3.0,40,0.00,,,-99.99,,2013-04-29 09:01:00,
2013-04-29 03:12:00,33.0,11.0,-100.00,SE,130,2.0,4.0,40,0.00,,,-99.99,,2013-04-29 09:12:00,
2013-04-29 03:21:00,33.0,11.0,-100.00,ESE,120,0.0,4.0,40,0.00,,,-99.99,,2013-04-29 09:21:00,
2013-04-29 03:32:00,32.0,11.0,-100.00,SSE,165,1.0,3.0,40,0.00,,,-99.99,,2013-04-29 09:32:00,
2013-04-29 03:42:00,32.0,11.0,-100.00,South,175,1.0,4.0,41,0.00,,,-99.99,,2013-04-29 09:42:00,
2013-04-29 03:52:00,32.0,11.0,-100.00,ESE,105,1.0,3.0,41,0.00,,,-99.99,,2013-04-29 09:52:00,
2013-04-29 04:02:00,32.0,11.0,-100.00,South,170,2.0,4.0,41,0.00,,,-99.99,,2013-04-29 10:02:00,
2013-04-29 04:12:00,31.0,11.0,-100.00,SE,135,1.0,3.0,42,0.00,,,-99.99,,2013-04-29 10:12:00,
2013-04-29 04:23:00,30.0,11.0,-100.00,SSW,195,2.0,4.0,44,0.00,,,-99.99,,2013-04-29 10:23:00,
2013-04-29 04:32:00,30.0,11.0,-100.00,SE,145,2.0,4.0,45,0.00,,,-99.99,,2013-04-29 10:32:00,
2013-04-29 04:42:00,32.0,13.0,-100.00,NE,35,1.0,4.0,43,0.00,,,-99.99,,2013-04-29 10:42:00,
2013-04-29 04:52:00,32.0,12.0,-100.00,SW,220,2.0,4.0,43,0.00,,,-99.99,,2013-04-29 10:52:00,
2013-04-29 05:02:00,32.0,12.0,-100.00,South,185,3.0,6.0,44,0.00,,,-99.99,,2013-04-29 11:02:00,
2013-04-29 05:12:00,32.0,12.0,-100.00,South,185,1.0,4.0,44,0.00,,,-99.99,,2013-04-29 11:12:00,
2013-04-29 05:21:00,30.0,12.0,-100.00,SSW,195,2.0,4.0,45,0.00,,,-99.99,,2013-04-29 11:21:00,
2013-04-29 05:32:00,31.0,12.0,-100.00,NE,45,4.0,6.0,45,0.00,,,-99.99,,2013-04-29 11:32:00,
2013-04-29 05:42:00,32.0,13.0,-100.00,NE,55,1.0,6.0,45,0.00,,,-99.99,,2013-04-29 11:42:00,
2013-04-29 05:52:00,31.0,12.0,-100.00,North,0,1.0,5.0,44,0.00,,,-99.99,,2013-04-29 11:52:00,
2013-04-29 06:01:00,31.0,12.0,-100.00,NE,40,2.0,5.0,45,0.00,,,-99.99,,2013-04-29 12:01:00,
2013-04-29 06:12:00,31.0,13.0,-100.00,NE,40,5.0,7.0,45,0.00,,,-99.99,,2013-04-29 12:12:00,
2013-04-29 06:22:00,31.0,13.0,-100.00,NE,40,4.0,10.0,45,0.00,,,-99.99,,2013-04-29 12:22:00,
2013-04-29 06:32:00,31.0,12.0,-100.00,NNE,20,6.0,9.0,45,0.00,,,-99.99,,2013-04-29 12:32:00,
2013-04-29 06:42:00,30.0,12.0,-100.00,NNE,20,4.0,10.0,45,0.00,,,-99.99,,2013-04-29 12:42:00,
2013-04-29 06:52:00,31.0,13.0,-100.00,NNE,15,4.0,12.0,45,0.00,,,-99.99,,2013-04-29 12:52:00,
2013-04-29 07:01:00,31.0,12.0,-100.00,North,0,4.0,8.0,45,0.00,,,-99.99,,2013-04-29 13:01:00,
2013-04-29 07:11:00,31.0,13.0,-100.00,NE,35,5.0,8.0,45,0.00,,,-99.99,,2013-04-29 13:11:00,
2013-04-29 07:21:00,31.0,13.0,-100.00,ENE,60,5.0,9.0,46,0.00,,,-99.99,,2013-04-29 13:21:00,
2013-04-29 07:31:00,31.0,13.0,-100.00,ESE,120,4.0,8.0,46,0.00,,,-99.99,,2013-04-29 13:31:00,
2013-04-29 07:42:00,31.0,13.0,-100.00,ESE,115,4.0,7.0,46,0.00,,,-99.99,,2013-04-29 13:42:00,
2013-04-29 07:52:00,31.0,13.0,-100.00,ENE,65,4.0,10.0,46,0.00,,,-99.99,,2013-04-29 13:52:00,
2013-04-29 08:02:00,32.0,13.0,-100.00,ENE,65,4.0,7.0,46,0.00,,,-99.99,,2013-04-29 14:02:00,
2013-04-29 08:11:00,32.0,13.0,-100.00,NE,55,4.0,8.0,46,0.00,,,-99.99,,2013-04-29 14:11:00,
2013-04-29 08:21:00,34.0,15.0,-100.00,East,90,3.0,7.0,44,0.00,,,-99.99,,2013-04-29 14:21:00,
2013-04-29 08:32:00,37.0,16.0,-100.00,SSE,155,3.0,7.0,42,0.00,,,-99.99,,2013-04-29 14:32:00,
2013-04-29 08:42:00,38.0,17.0,-100.00,West,260,2.0,7.0,42,0.00,,,-99.99,,2013-04-29 14:42:00,
2013-04-29 08:52:00,38.0,17.0,-100.00,SE,130,4.0,9.0,41,0.00,,,-99.99,,2013-04-29 14:52:00,
2013-04-29 09:01:00,39.0,17.0,-100.00,SSE,160,4.0,10.0,41,0.00,,,-99.99,,2013-04-29 15:01:00,
2013-04-29 09:12:00,40.0,18.0,-100.00,SE,125,3.0,11.0,41,0.00,,,-99.99,,2013-04-29 15:12:00,
2013-04-29 09:21:00,40.0,18.0,-100.00,SE,135,4.0,8.0,40,0.00,,,-99.99,,2013-04-29 15:21:00,
2013-04-29 09:33:00,41.0,19.0,-100.00,SE,140,5.0,9.0,40,0.00,,,-99.99,,2013-04-29 15:33:00,
2013-04-29 09:42:00,41.0,19.0,-100.00,SSW,205,4.0,12.0,40,0.00,,,-99.99,,2013-04-29 15:42:00,
2013-04-29 09:52:00,41.0,19.0,-100.00,NNE,30,1.0,9.0,39,0.00,,,-99.99,,2013-04-29 15:52:00,
2013-04-29 10:02:00,42.0,19.0,-100.00,East,80,2.0,8.0,39,0.00,,,-99.99,,2013-04-29 16:02:00,
2013-04-29 10:12:00,42.0,19.0,-100.00,NNE,20,4.0,7.0,39,0.00,,,-99.99,,2013-04-29 16:12:00,
2013-04-29 10:23:00,42.0,19.0,-100.00,NNE,15,4.0,9.0,38,0.00,,,-99.99,,2013-04-29 16:23:00,
2013-04-29 10:33:00,42.0,19.0,-100.00,ESE,105,6.0,14.0,38,0.00,,,-99.99,,2013-04-29 16:33:00,
2013-04-29 10:42:00,43.0,20.0,-100.00,NNE,30,4.0,13.0,39,0.00,,,-99.99,,2013-04-29 16:42:00,
2013-04-29 10:52:00,43.0,19.0,-100.00,NNW,340,4.0,13.0,38,0.00,,,-99.99,,2013-04-29 16:52:00,
2013-04-29 11:02:00,44.0,20.0,-100.00,SSE,160,5.0,12.0,38,0.00,,,-99.99,,2013-04-29 17:02:00,
2013-04-29 11:12:00,46.0,21.0,-100.00,SE,125,4.0,9.0,37,0.00,,,-99.99,,2013-04-29 17:12:00,
2013-04-29 11:22:00,42.0,19.0,-100.00,North,0,9.0,17.0,38,0.00,,,-99.99,,2013-04-29 17:22:00,
2013-04-29 11:32:00,44.0,20.0,-100.00,South,185,4.0,20.0,38,0.00,,,-99.99,,2013-04-29 17:32:00,
2013-04-29 11:42:00,45.0,20.0,-100.00,North,5,4.0,17.0,37,0.00,,,-99.99,,2013-04-29 17:42:00,
2013-04-29 11:52:00,45.0,20.0,-100.00,ENE,60,4.0,17.0,36,0.00,,,-99.99,,2013-04-29 17:52:00,
2013-04-29 12:01:00,45.0,20.0,-100.00,SSE,155,7.0,17.0,36,0.00,,,-99.99,,2013-04-29 18:01:00,
2013-04-29 12:13:00,46.0,20.0,-100.00,West,275,3.0,12.0,35,0.00,,,-99.99,,2013-04-29 18:13:00,
2013-04-29 12:22:00,46.0,21.0,-100.00,SSW,195,5.0,14.0,35,0.00,,,-99.99,,2013-04-29 18:22:00,
2013-04-29 12:32:00,46.0,20.0,-100.00,North,0,6.0,12.0,35,0.00,,,-99.99,,2013-04-29 18:32:00,
2013-04-29 12:42:00,48.0,21.0,-100.00,SW,225,2.0,16.0,34,0.00,,,-99.99,,2013-04-29 18:42:00,
2013-04-29 12:51:00,47.0,20.0,-100.00,SW,215,4.0,15.0,34,0.00,,,-99.99,,2013-04-29 18:51:00,
2013-04-29 13:01:00,47.0,20.0,-100.00,North,5,9.0,25.0,33,0.00,,,-99.99,,2013-04-29 19:01:00,
2013-04-29 13:11:00,47.0,20.0,-100.00,SSE,165,7.0,18.0,33,0.00,,,-99.99,,2013-04-29 19:11:00,
2013-04-29 13:21:00,47.0,19.0,-100.00,NNE,30,9.0,21.0,32,0.00,,,-99.99,,2013-04-29 19:21:00,
2013-04-29 13:31:00,48.0,18.0,-100.00,NNE,25,6.0,13.0,30,0.00,,,-99.99,,2013-04-29 19:31:00,
2013-04-29 13:41:00,47.0,17.0,-100.00,NNE,20,9.0,24.0,30,0.00,,,-99.99,,2013-04-29 19:41:00,
2013-04-29 13:52:00,47.0,17.0,-100.00,NNE,15,7.0,17.0,29,0.00,,,-99.99,,2013-04-29 19:52:00,
2013-04-29 14:02:00,48.0,18.0,-100.00,North,0,4.0,20.0,29,0.00,,,-99.99,,2013-04-29 20:02:00,
2013-04-29 14:11:00,48.0,17.0,-100.00,ENE,60,6.0,21.0,28,0.00,,,-99.99,,2013-04-29 20:11:00,
2013-04-29 14:21:00,48.0,17.0,-100.00,NE,40,9.0,21.0,29,0.00,,,-99.99,,2013-04-29 20:21:00,
2013-04-29 14:32:00,49.0,18.0,-100.00,SSW,200,3.0,11.0,28,0.00,,,-99.99,,2013-04-29 20:32:00,
2013-04-29 14:42:00,49.0,18.0,-100.00,North,0,3.0,24.0,28,0.00,,,-99.99,,2013-04-29 20:42:00,
2013-04-29 14:52:00,49.0,17.0,-100.00,North,0,4.0,19.0,28,0.00,,,-99.99,,2013-04-29 20:52:00,
2013-04-29 15:01:00,50.0,18.0,-100.00,North,0,5.0,19.0,27,0.00,,,-99.99,,2013-04-29 21:01:00,
2013-04-29 15:11:00,49.0,18.0,-100.00,NE,50,7.0,16.0,27,0.00,,,-99.99,,2013-04-29 21:11:00,
2013-04-29 15:21:00,49.0,17.0,-100.00,NNE,15,9.0,20.0,27,0.00,,,-99.99,,2013-04-29 21:21:00,
2013-04-29 15:33:00,49.0,17.0,-100.00,North,5,14.0,28.0,27,0.00,,,-99.99,,2013-04-29 21:33:00,
2013-04-29 15:42:00,49.0,17.0,-100.00,NNE,30,14.0,27.0,27,0.00,,,-99.99,,2013-04-29 21:42:00,
2013-04-29 15:53:00,49.0,18.0,-100.00,NE,35,6.0,21.0,28,0.00,,,-99.99,,2013-04-29 21:53:00,
2013-04-29 16:02:00,48.0,17.0,-100.00,North,0,7.0,23.0,28,0.00,,,-99.99,,2013-04-29 22:02:00,
2013-04-29 16:13:00,48.0,17.0,-100.00,NNE,25,9.0,22.0,28,0.00,,,-99.99,,2013-04-29 22:13:00,
2013-04-29 16:23:00,49.0,17.0,-100.00,NNE,30,7.0,22.0,27,0.00,,,-99.99,,2013-04-29 22:23:00,
2013-04-29 16:32:00,49.0,16.0,-100.00,NNE,25,12.0,23.0,27,0.00,,,-99.99,,2013-04-29 22:32:00,
2013-04-29 16:42:00,47.0,15.0,-100.00,NE,40,9.0,21.0,28,0.00,,,-99.99,,2013-04-29 22:42:00,
2013-04-29 16:53:00,48.0,16.0,-100.00,North,5,12.0,28.0,27,0.00,,,-99.99,,2013-04-29 22:53:00,
2013-04-29 17:02:00,49.0,16.0,-100.00,NE,50,7.0,17.0,26,0.00,,,-99.99,,2013-04-29 23:02:00,
2013-04-29 17:11:00,48.0,15.0,-100.00,ENE,60,10.0,21.0,27,0.00,,,-99.99,,2013-04-29 23:11:00,
2013-04-29 17:22:00,49.0,16.0,-100.00,NE,35,4.0,17.0,26,0.00,,,-99.99,,2013-04-29 23:22:00,
2013-04-29 17:32:00,48.0,15.0,-100.00,North,5,6.0,22.0,26,0.00,,,-99.99,,2013-04-29 23:32:00,
2013-04-29 17:42:00,48.0,16.0,-100.00,ENE,60,7.0,18.0,26,0.00,,,-99.99,,2013-04-29 23:42:00,
2013-04-29 17:52:00,48.0,16.0,-100.00,NE,40,7.0,24.0,27,0.00,,,-99.99,,2013-04-29 23:52:00,
2013-04-29 18:01:00,47.0,15.0,-100.00,NNE,25,12.0,20.0,27,0.00,,,-99.99,,2013-04-30 00:01:00,
2013-04-29 18:11:00,47.0,16.0,-100.00,NNE,25,11.0,18.0,27,0.00,,,-99.99,,2013-04-30 00:11:00,
2013-04-29 18:21:00,46.0,15.0,-100.00,North,0,6.0,17.0,28,0.00,,,-99.99,,2013-04-30 00:21:00,
2013-04-29 18:32:00,47.0,16.0,-100.00,North,0,13.0,22.0,28,0.00,,,-99.99,,2013-04-30 00:32:00,
2013-04-29 18:41:00,46.0,15.0,-100.00,NNE,25,9.0,23.0,28,0.00,,,-99.99,,2013-04-30 00:41:00,
2013-04-29 18:52:00,45.0,15.0,-100.00,North,0,7.0,23.0,28,0.00,,,-99.99,,2013-04-30 00:52:00,
2013-04-29 19:02:00,45.0,14.0,-100.00,North,10,5.0,22.0,28,0.00,,,-99.99,,2013-04-30 01:02:00,
2013-04-29 19:11:00,45.0,14.0,-100.00,NNE,20,8.0,16.0,28,0.00,,,-99.99,,2013-04-30 01:11:00,
2013-04-29 19:21:00,45.0,15.0,-100.00,NE,35,5.0,14.0,29,0.00,,,-99.99,,2013-04-30 01:21:00,
2013-04-29 19:32:00,45.0,15.0,-100.00,NNE,25,3.0,11.0,29,0.00,,,-99.99,,2013-04-30 01:32:00,
2013-04-29 19:41:00,45.0,15.0,-100.00,NNE,30,4.0,10.0,29,0.00,,,-99.99,,2013-04-30 01:41:00,
2013-04-29 19:51:00,44.0,15.0,-100.00,North,0,3.0,10.0,30,0.00,,,-99.99,,2013-04-30 01:51:00,
2013-04-29 20:01:00,44.0,15.0,-100.00,North,5,6.0,11.0,30,0.00,,,-99.99,,2013-04-30 02:01:00,
2013-04-29 20:11:00,44.0,15.0,-100.00,NNE,20,9.0,16.0,30,0.00,,,-99.99,,2013-04-30 02:11:00,
2013-04-29 20:21:00,43.0,14.0,-100.00,NNE,30,4.0,13.0,30,0.00,,,-99.99,,2013-04-30 02:21:00,
2013-04-29 20:31:00,43.0,14.0,-100.00,North,5,6.0,17.0,30,0.00,,,-99.99,,2013-04-30 02:31:00,
2013-04-29 20:41:00,42.0,14.0,-100.00,North,0,4.0,9.0,31,0.00,,,-99.99,,2013-04-30 02:41:00,
2013-04-29 20:51:00,42.0,14.0,-100.00,South,190,2.0,7.0,32,0.00,,,-99.99,,2013-04-30 02:51:00,
2013-04-29 21:01:00,42.0,14.0,-100.00,North,10,1.0,8.0,32,0.00,,,-99.99,,2013-04-30 03:01:00,
2013-04-29 21:11:00,42.0,14.0,-100.00,WSW,240,2.0,12.0,32,0.00,,,-99.99,,2013-04-30 03:11:00,
2013-04-29 21:21:00,41.0,14.0,-100.00,SE,140,2.0,11.0,33,0.00,,,-99.99,,2013-04-30 03:21:00,
2013-04-29 21:33:00,41.0,14.0,-100.00,West,260,2.0,6.0,33,0.00,,,-99.99,,2013-04-30 03:33:00,
2013-04-29 21:42:00,41.0,14.0,-100.00,NE,45,7.0,11.0,33,0.00,,,-99.99,,2013-04-30 03:42:00,
2013-04-29 21:52:00,41.0,14.0,-100.00,NNE,30,3.0,9.0,32,0.00,,,-99.99,,2013-04-30 03:52:00,
2013-04-29 22:02:00,40.0,13.0,-100.00,SSE,165,4.0,8.0,33,0.00,,,-99.99,,2013-04-30 04:02:00,
2013-04-29 22:12:00,41.0,13.0,-100.00,NE,45,4.0,9.0,32,0.00,,,-99.99,,2013-04-30 04:12:00,
2013-04-29 22:22:00,41.0,13.0,-100.00,NNE,15,1.0,12.0,31,0.00,,,-99.99,,2013-04-30 04:22:00,
2013-04-29 22:32:00,40.0,12.0,-100.00,North,0,2.0,10.0,31,0.00,,,-99.99,,2013-04-30 04:32:00,
2013-04-29 22:42:00,40.0,12.0,-100.00,NE,40,4.0,9.0,31,0.00,,,-99.99,,2013-04-30 04:42:00,
2013-04-29 22:52:00,40.0,12.0,-100.00,NE,45,6.0,12.0,30,0.00,,,-99.99,,2013-04-30 04:52:00,
2013-04-29 23:02:00,40.0,12.0,-100.00,NE,35,6.0,11.0,31,0.00,,,-99.99,,2013-04-30 05:02:00,
2013-04-29 23:12:00,40.0,11.0,-100.00,NNE,30,3.0,12.0,30,0.00,,,-99.99,,2013-04-30 05:12:00,
2013-04-29 23:22:00,38.0,11.0,-100.00,SSE,150,2.0,8.0,32,0.00,,,-99.99,,2013-04-30 05:22:00,
2013-04-29 23:31:00,38.0,11.0,-100.00,SSE,165,3.0,8.0,32,0.00,,,-99.99,,2013-04-30 05:31:00,
2013-04-29 23:42:00,37.0,11.0,-100.00,South,185,4.0,7.0,33,0.00,,,-99.99,,2013-04-30 05:42:00,
2013-04-29 23:51:00,37.0,11.0,-100.00,SSE,160,2.0,7.0,33,0.00,,,-99.99,,2013-04-30 05:51:00,